METEOR 2-5 DEB, 38276

Orbit data source: Space-Track

METEOR 2-5 DEB, 38276 is space debris in LEO originally from a launch on Wed, 31 Oct 1979 UTC launched from the Plesetsk Missile And Space Complex (PKMTR). Debris objects in space refer to the collection of defunct objects orbiting the Earth. Examples of debris include non-operational satellites, rocket bodies, and fragments generated from explosions, collisions, or faulty payload assembly.

Loading next visibility...
Identifier
38276, 1979-095BW
Orbit
LEO
Country
Flag of CISCIS
Related business
Manufacturer
Unknown
Mission
Spacecraft
Bus & Motor
Unknown
Mass
Unknown
Launch date (UTC)
1979-10-31 (46 years ago)
Launch vehicle
Unknown
Launch site
Plesetsk Missile And Space Complex (PKMTR)
Object type
Payload
Rocket body
Debris
Shape & HBR
Unknown shape, 0.1 m
Radar Cross Section
Small (<0.1 m²)

Expand to show TLE details & history
Last TLE update: 3 days ago

TLE from 3 days ago
0 METEOR 2-5 DEB
1 38276U 79095BW  25291.97386722  .00014547  00000-0  47730-2 0  9993
2 38276  81.1848  17.0765 0017987  25.8498  97.2749 14.38182516716586
Epoch: 2025-10-18T23:22Z
TLE epoch observation values (Epoch: 2025-10-18T23:22:22.127Z)
Latitude
55.75645°
Longitude
165.68972°
Altitude
775.405 km
Speed
7.471 km/s
True Right ascension
12h 15m 54s
True Declination
55° 35' 48"
Sunlit
Object was in daylight at epoch
Visualization orbit readout
Latitude
Unknown
Longitude
Unknown
Altitude
Unknown
Speed
Unknown
Apparent Right ascension
Unknown
Apparent Declination
Unknown
Sunlit
N/A
Visualization observer readout
Local Sidereal Time
08:36:55
Azimuth
Unknown
Elevation
Unknown
Doppler factor
Unknown
Orbital elements
Apogee altitude
774.492 km
Perigee altitude
748.807 km
Semi-major axis
7,139.786 km
Eccentricity
0.0018
Inclination
81.1848°
RAAN
17.0765°
Arg. of periapsis
25.8498°
True anomaly
97.4793°
Mean anomaly
97.2749°
Eccentric anomaly
97.3771°
Mean motion
3.59762 °/min
Orbital period
100.07 mins
BSTAR
0.004773
Loading maneuver chart data...
Computing Atmospheric mass density...

Documentation

Showing up to 5 results
|